Location: Newark
(44.3449°N, 4.8694°E)
Time: 13:37:30
(UTC+00:00)

Envisat - Pass Details

Date: 22 January 2020
Orbit: 764 x 766 km, 98.1° (Epoch: 24 February)

Event Time Altitude Azimuth Distance (km) Brightness Sun altitude
Rises 06:22:24 0° 14° (NNE) 3,243 6.2 -8.5°
Reaches altitude 10° 06:24:44 10° 15° (NNE) 2,312 5.5 -8.1°
Maximum altitude 06:29:50 80° 103° (ESE) 783 3.2 -7.2°
Drops below altitude 10° 06:34:54 10° 190° (S) 2,294 5.6 -6.4°
Sets 06:37:12 0° 192° (SSW) 3,215 6.4 -6.0°
